This demonstration page uses our WeatherBlox Daily Observations layout. Learn more.

Left ArrowRight Arrow

39.01783, -85.05884

Hourly Observations for March 17, 2020

Temp ( °F °C ) Dew Point ( °F °C ) Humidity (%) Winds ( mph kmh ) Pressure ( in mb ) Visibility ( mi km ) Precip ( " mm )
12:52 am 00:52 Cloudy with Light Rain 44 6.7 38 3.3 79 79 SSW 3 6 30.16 1021 10 16 0.01 0.25
1:52 am 01:52 Cloudy 43 6.1 39 3.9 86 86 SSW 8 13 30.14 1021 10 16 0.00 0.00
2:52 am 02:52 Cloudy 43 6.1 39 3.9 86 86 SW 7 11 30.14 1021 7 11 0.00 0.00
2:54 am 02:54 Cloudy 43 6.1 39 3.9 86 86 SW 6 9 30.16 1021 7 11 0.00 0.00
2:59 am 02:59 Cloudy 43 6.1 40 4.4 89 89 SW 7 11 30.16 1021 7 11 0.00 0.00
3:52 am 03:52 Cloudy with Mist and Fog 43 6.1 40 4.4 89 89 SW 5 7 30.13 1020 6 10 0.00 0.00
4:30 am 04:30 Cloudy with Mist and Fog 43 6.1 40 4.4 89 89 WSW 6 9 30.14 1021 4 6 0.00 0.00
4:52 am 04:52 Cloudy with Mist and Fog 43 6.1 40 4.4 89 89 WSW 3 6 30.12 1020 5 8 0.00 0.00
4:58 am 04:58 Cloudy with Mist and Fog 43 6.1 40 4.4 89 89 WSW 3 6 30.14 1021 4 6 0.00 0.00
5:14 am 05:14 Cloudy with Mist and Fog 43 6.1 40 4.4 89 89 WSW 5 7 30.14 1021 6 10 0.00 0.00
5:52 am 05:52 Cloudy 43 6.1 40 4.4 89 89 W 7 11 30.13 1020 7 11 0.00 0.00
6:08 am 06:08 Cloudy 43 6.1 40 4.4 89 89 W 7 11 30.17 1022 7 11 0.00 0.00
6:13 am 06:13 Cloudy 43 6.1 40 4.4 89 89 W 6 9 30.16 1021 7 11 0.00 0.00
6:52 am 06:52 Cloudy with Mist and Fog 43 6.1 40 4.4 89 89 W 7 11 30.15 1021 6 10 0.00 0.00
7:32 am 07:32 Cloudy 43 6.1 40 4.4 89 89 WNW 8 13 30.20 1023 7 11 0.00 0.00
7:52 am 07:52 Cloudy with Mist and Fog 43 6.1 40 4.4 89 89 WNW 8 13 30.18 1022 6 10 0.00 0.00
8:25 am 08:25 Cloudy 43 6.1 38 3.3 82 82 WNW 13 20 30.22 1024 7 11 0.00 0.00
8:52 am 08:52 Cloudy with Mist and Fog 43 6.1 39 3.9 86 86 NW 10 17 30.21 1023 6 10 0.00 0.00
9:24 am 09:24 Cloudy with Mist and Fog 43 6.1 38 3.3 82 82 NW 14 22 30.24 1024 6 10 0.00 0.00
9:52 am 09:52 Cloudy 43 6.1 38 3.3 82 82 NW 12 19 30.24 1024 7 11 0.00 0.00
10:24 am 10:24 Cloudy 43 6.1 39 3.9 86 86 WNW 12 19 30.27 1025 8 13 0.00 0.00
10:52 am 10:52 Cloudy 44 6.7 37 2.8 76 76 NW 10 17 30.25 1025 9 14 0.00 0.00
11:52 am 11:52 Cloudy 44 6.7 35 1.7 71 71 NW 9 15 30.28 1025 10 16 0.00 0.00
12:52 pm 12:52 Cloudy 46 7.8 32 0 58 58 NNW 10 17 30.28 1025 10 16 0.00 0.00
1:52 pm 13:52 Cloudy 47 8.3 32 0 56 56 NNW 10 17 30.29 1026 10 16 0.00 0.00
2:02 pm 14:02 Cloudy 47 8.3 33 0.6 59 59 NNW 5 7 30.31 1026 10 16 0.00 0.00
2:52 pm 14:52 Mostly Cloudy 52 11.1 35 1.7 53 53 NNW 7 11 30.27 1025 10 16 0.00 0.00
3:52 pm 15:52 Mostly Cloudy 49 9.4 33 0.6 55 55 NW 6 9 30.27 1025 10 16 0.00 0.00
4:52 pm 16:52 Mostly Cloudy 52 11.1 34 1.1 50 50 N 6 9 30.27 1025 10 16 0.00 0.00
5:52 pm 17:52 Mostly Cloudy 52 11.1 34 1.1 50 50 VRB 3 6 30.27 1025 10 16 0.00 0.00
6:52 pm 18:52 Mostly Sunny 51 10.6 34 1.1 52 52 NE 3 6 30.28 1025 10 16 0.00 0.00
7:52 pm 19:52 Partly Cloudy 46 7.8 33 0.6 61 61 E 6 9 30.29 1026 10 16 0.00 0.00
8:52 pm 20:52 Mostly Cloudy 45 7.2 33 0.6 63 63 E 6 9 30.30 1026 10 16 0.00 0.00
9:52 pm 21:52 Cloudy 45 7.2 33 0.6 63 63 ESE 3 6 30.32 1027 10 16 0.00 0.00
10:52 pm 22:52 Cloudy 43 6.1 33 0.6 68 68 ESE 7 11 30.32 1027 10 16 0.00 0.00
11:52 pm 23:52 Cloudy 42 5.6 34 1.1 73 73 ESE 9 15 30.32 1027 10 16 0.00 0.00

Powered by AerisWeather